Weather History for KCVX - December, 2013

Change the Weather History Date:

Sunday, December 15, 2013

  Actual Average Record
Temperature  
Mean Temperature 20 °F -  
Max Temperature 23 °F 39 °F 48 °F (2011)
Min Temperature 16 °F 26 °F 5 °F (2007)
Degree Days  
Heating Degree Days 46    
Moisture  
Dew Point 15 °F    
Average Humidity 83    
Maximum Humidity 93    
Minimum Humidity 73    
Precipitation  
Precipitation 0.00 in - - ()
Sea Level Pressure  
Sea Level Pressure 29.80 in    
Wind  
Wind Speed 11 mph (NNW)    
Max Wind Speed 24 mph    
Max Gust Speed 31 mph    
Visibility 3 miles    
Events Snow    
Averages and records for this station are not official NWS values.
T = Trace of Precipitation, MM = Missing Value Source: NWS Daily Summary

Daily Weather History Graph

Daily Weather History Graph

Search for Another Location

Airport or City:

Trip Planner

Search our weather history database for the weather conditions in past years. The results will help you decide how hot, cold, wet, or windy it might be!

Date:

Astronomy

Dec. 15, 2013 Rise Set
Actual Time 8:13 AM EST 4:59 PM EST
Civil Twilight 7:39 AM EST 5:33 PM EST
Nautical Twilight 7:02 AM EST 6:10 PM EST
Astronomical Twilight 6:26 AM EST 6:46 PM EST
Moon 4:05 PM EST (12/15) 6:25 AM EST (12/15)
Length of Visible Light 9h 53m
Length of Day
8h 45m
Waxing Gibbous, 97% of the Moon is Illuminated
Dec 15
Waxing Gibbous
Dec 17
Full
Dec 25
Last Quarter
Jan 1
New
Jan 7
First Quarter

Hourly Weather History & Observations

Time (EST) Temp. Windchill Dew Point Humidity Pressure Visibility Wind Dir Wind Speed Gust Speed Precip Events Conditions
12:14 AM 18.9 °F 10.8 °F 14.7 °F 84% 29.90 in 4.0 mi East 5.8 mph - N/A Snow Light Snow
12:35 AM 18.7 °F 7.8 °F 14.7 °F 85% 29.89 in 4.0 mi East 9.2 mph - N/A Snow Light Snow
12:55 AM 18.9 °F 10.8 °F 14.7 °F 84% 29.89 in 4.0 mi East 5.8 mph - N/A Snow Light Snow
1:14 AM 18.9 °F 8.8 °F 14.9 °F 85% 29.88 in 3.0 mi East 8.1 mph - N/A Snow Light Snow
1:35 AM 18.9 °F 9.8 °F 14.9 °F 85% 29.86 in 3.0 mi ESE 6.9 mph - N/A Snow Light Snow
1:54 AM 18.5 °F 10.4 °F 14.9 °F 86% 29.85 in 2.5 mi ESE 5.8 mph - N/A Snow Light Snow
2:15 AM 18.3 °F 9.1 °F 14.9 °F 86% 29.85 in 2.5 mi SE 6.9 mph - N/A Snow Light Snow
2:35 AM 18.1 °F 8.9 °F 14.7 °F 86% 29.84 in 4.0 mi SE 6.9 mph - N/A Snow Light Snow
2:54 AM 18.1 °F 7.1 °F 14.7 °F 86% 29.84 in 4.0 mi ESE 9.2 mph - N/A Snow Light Snow
3:15 AM 18.1 °F 7.1 °F 14.5 °F 86% 29.83 in 5.0 mi ESE 9.2 mph - N/A Snow Light Snow
3:34 AM 18.1 °F 7.1 °F 14.5 °F 86% 29.82 in 5.0 mi SE 9.2 mph - N/A Snow Light Snow
3:55 AM 18.0 °F 5.4 °F 14.0 °F 84% 29.81 in 4.0 mi ESE 11.5 mph - N/A Snow Light Snow
4:15 AM 18.0 °F 6.1 °F 14.0 °F 84% 29.80 in 5.0 mi ESE 10.4 mph - N/A Snow Light Snow
4:34 AM 17.6 °F 6.4 °F 14.4 °F 87% 29.79 in 5.0 mi SE 9.2 mph - N/A Snow Light Snow
4:55 AM 17.4 °F 8.0 °F 14.5 °F 88% 29.77 in 3.0 mi SE 6.9 mph - N/A Snow Light Snow
5:15 AM 17.4 °F 6.2 °F 14.4 °F 88% 29.76 in 3.0 mi SE 9.2 mph - N/A Snow Light Snow
5:34 AM 17.2 °F 6.8 °F 14.4 °F 88% 29.76 in 2.5 mi SE 8.1 mph - N/A Snow Light Snow
5:55 AM 17.2 °F 7.8 °F 14.2 °F 88% 29.75 in 4.0 mi SE 6.9 mph - N/A Snow Light Snow
6:14 AM 17.2 °F 7.8 °F 14.5 °F 89% 29.74 in 4.0 mi ESE 6.9 mph - N/A Snow Light Snow
6:35 AM 17.2 °F 6.8 °F 14.5 °F 89% 29.74 in 7.0 mi ESE 8.1 mph - N/A Snow Light Snow
6:55 AM 17.4 °F 7.1 °F 14.7 °F 89% 29.74 in 4.0 mi ESE 8.1 mph - N/A Snow Light Snow
7:14 AM 17.6 °F 8.2 °F 14.9 °F 89% 29.73 in 3.0 mi SE 6.9 mph - N/A Snow Light Snow
7:35 AM 17.6 °F 8.2 °F 14.9 °F 89% 29.73 in 1.8 mi SE 6.9 mph - N/A Snow Light Snow
7:55 AM 17.6 °F 9.3 °F 15.4 °F 91% 29.72 in 1.2 mi SSE 5.8 mph - N/A Snow Light Snow
8:14 AM 17.6 °F 12.3 °F 15.4 °F 91% 29.72 in 2.0 mi SE 3.5 mph - N/A Snow Light Snow
8:35 AM 18.7 °F 6.3 °F 16.9 °F 93% 29.71 in 3.0 mi West 11.5 mph - N/A Snow Light Snow
8:55 AM 22.5 °F 7.2 °F 19.4 °F 88% 29.72 in 1.2 mi West 20.7 mph 24.2 mph N/A Snow Light Snow
9:14 AM 22.1 °F 6.4 °F 18.3 °F 85% 29.72 in 1.5 mi West 21.9 mph 25.3 mph N/A Snow Light Snow
9:35 AM 21.7 °F 6.3 °F 17.6 °F 84% 29.72 in 1.2 mi WNW 20.7 mph 26.5 mph N/A Snow Light Snow
9:54 AM 21.2 °F 5.6 °F 16.7 °F 83% 29.72 in 1.0 mi WNW 20.7 mph 27.6 mph N/A Snow Light Snow
10:14 AM 21.2 °F 6.0 °F 17.1 °F 84% 29.73 in 1.2 mi WNW 19.6 mph 25.3 mph N/A Snow Light Snow
10:35 AM 21.2 °F 6.8 °F 16.3 °F 82% 29.73 in 1.2 mi WNW 17.3 mph 26.5 mph N/A Snow Light Snow
10:54 AM 21.2 °F 7.8 °F 16.7 °F 83% 29.73 in 0.8 mi WNW 15.0 mph 28.8 mph N/A Snow Light Snow
11:15 AM 21.0 °F 5.7 °F 16.3 °F 82% 29.73 in 1.0 mi WNW 19.6 mph 26.5 mph N/A Snow Light Snow
11:35 AM 20.7 °F 4.9 °F 16.7 °F 85% 29.73 in 0.5 mi WNW 20.7 mph 25.3 mph N/A Snow Light Snow
11:54 AM 20.8 °F 6.4 °F 17.2 °F 86% 29.72 in 0.5 mi WNW 17.3 mph 26.5 mph N/A Snow Light Snow
12:15 PM 20.7 °F 4.9 °F 16.5 °F 84% 29.72 in 0.8 mi West 20.7 mph 28.8 mph N/A Snow Light Snow
12:35 PM 20.5 °F 5.9 °F 16.2 °F 83% 29.72 in 1.0 mi WNW 17.3 mph 24.2 mph N/A Snow Light Snow
12:54 PM 20.8 °F 7.9 °F 16.7 °F 84% 29.72 in 0.8 mi NW 13.8 mph 23.0 mph N/A Snow Light Snow
1:15 PM 20.8 °F 7.9 °F 16.9 °F 85% 29.72 in 0.5 mi NW 13.8 mph 23.0 mph N/A Snow Light Snow
1:35 PM 21.2 °F 7.3 °F 16.7 °F 83% 29.72 in 1.5 mi NW 16.1 mph 21.9 mph N/A Snow Light Snow
1:54 PM 21.0 °F 7.1 °F 15.8 °F 80% 29.73 in 4.0 mi NW 16.1 mph 20.7 mph N/A Snow Light Snow
2:15 PM 21.2 °F 7.8 °F 16.0 °F 80% 29.73 in 2.5 mi NNW 15.0 mph 24.2 mph N/A Snow Light Snow
2:35 PM 21.2 °F 8.9 °F 16.7 °F 83% 29.73 in 1.5 mi NNW 12.7 mph 20.7 mph N/A Snow Light Snow
2:54 PM 21.9 °F 9.8 °F 16.7 °F 80% 29.74 in 4.0 mi NW 12.7 mph - N/A Snow Light Snow
3:15 PM 21.7 °F 9.6 °F 16.9 °F 82% 29.75 in 1.2 mi NW 12.7 mph - N/A Snow Light Snow
3:35 PM 21.7 °F 8.5 °F 15.6 °F 77% 29.76 in 1.2 mi WNW 15.0 mph 24.2 mph N/A Snow Light Snow
3:54 PM 21.6 °F 7.8 °F 16.9 °F 82% 29.76 in 2.0 mi West 16.1 mph 23.0 mph N/A Snow Light Snow
4:15 PM 21.7 °F 7.1 °F 16.3 °F 80% 29.77 in 2.5 mi WNW 18.4 mph 27.6 mph N/A Snow Light Snow
4:34 PM 21.7 °F 6.3 °F 15.8 °F 78% 29.77 in 1.8 mi WNW 20.7 mph 25.3 mph N/A Snow Light Snow
4:55 PM 21.7 °F 6.7 °F 15.8 °F 78% 29.78 in 1.5 mi West 19.6 mph - N/A Snow Light Snow
5:15 PM 22.1 °F 7.2 °F 14.9 °F 74% 29.79 in 2.5 mi WNW 19.6 mph 27.6 mph N/A Snow Light Snow
5:34 PM 22.1 °F 8.5 °F 14.7 °F 73% 29.79 in 4.0 mi West 16.1 mph 28.8 mph N/A Snow Light Snow
5:55 PM 21.9 °F 6.2 °F 14.5 °F 73% 29.79 in 4.0 mi West 21.9 mph 27.6 mph N/A   Haze
6:14 PM 21.7 °F 5.9 °F 14.7 °F 74% 29.80 in 3.0 mi West 21.9 mph 29.9 mph N/A Snow Light Snow
6:35 PM 22.1 °F 5.7 °F 15.8 °F 77% 29.80 in 4.0 mi West 24.2 mph 31.1 mph N/A Snow Light Snow
6:55 PM 22.5 °F 6.9 °F 16.3 °F 77% 29.79 in 5.0 mi West 21.9 mph 26.5 mph N/A Snow Light Snow
7:14 PM 22.6 °F 9.6 °F 17.4 °F 80% 29.78 in 4.0 mi WSW 15.0 mph 23.0 mph N/A Snow Light Snow
7:35 PM 23.0 °F 9.6 °F 15.8 °F 74% 29.78 in 5.0 mi NW 16.1 mph 23.0 mph N/A   Haze
7:55 PM 22.6 °F 10.7 °F 19.0 °F 86% 29.80 in 1.2 mi North 12.7 mph 17.3 mph N/A Snow Light Snow
8:14 PM 20.8 °F 7.3 °F 17.2 °F 86% 29.83 in 1.5 mi NNE 15.0 mph 28.8 mph N/A Snow Light Snow
8:35 PM 18.1 °F 4.4 °F 14.4 °F 85% 29.86 in 5.0 mi NNE 13.8 mph - N/A Snow Light Snow
8:55 PM 18.1 °F 4.4 °F 13.1 °F 81% 29.88 in 5.0 mi NNE 13.8 mph 20.7 mph N/A Snow Light Snow
9:14 PM 17.6 °F 3.7 °F 12.0 °F 79% 29.89 in 5.0 mi NNE 13.8 mph 21.9 mph N/A Snow Light Snow
9:35 PM 17.6 °F 3.2 °F 11.5 °F 77% 29.91 in 10.0 mi NNE 15.0 mph 21.9 mph N/A   Overcast
9:55 PM 16.7 °F 3.2 °F 9.9 °F 74% 29.92 in 7.0 mi NNE 12.7 mph 20.7 mph N/A   Overcast
10:14 PM 16.5 °F 3.6 °F 10.2 °F 76% 29.94 in 10.0 mi NNE 11.5 mph - N/A   Overcast
10:35 PM 16.7 °F 3.2 °F 10.6 °F 77% 29.95 in 10.0 mi North 12.7 mph 17.3 mph N/A   Overcast
10:55 PM 16.9 °F 5.5 °F 10.6 °F 76% 29.96 in 10.0 mi North 9.2 mph 16.1 mph N/A Snow Light Snow
11:14 PM 16.7 °F 3.8 °F 9.9 °F 74% 29.97 in 7.0 mi NNE 11.5 mph 16.1 mph N/A Snow Light Snow
11:35 PM 16.7 °F 2.6 °F 10.6 °F 77% 29.98 in 7.0 mi North 13.8 mph - N/A Snow Light Snow
11:54 PM 16.5 °F 3.6 °F 9.7 °F 74% 29.99 in 7.0 mi NNE 11.5 mph - N/A Snow Light Snow